Probability
0 0 0 0 0 0 0 0 0 0 0 0 0 0 0 0 0 0 0 0 0 0 0 0 0 0 0 0 0 0 0 0 0 0 0 0 0 0 0 0 0 0 0 0
0 0 0 0 0 0 0 0 0 0 0 0 0 0 0 0 0 0 0 0 0 0 0 0 0 0 0 0 0 0 0 0 0 0 0 0 0 0 0 0 0 0 0 0
0 0 0 0 0 0 0 0 0 0 0 0 0 0 0 0 0 0 0 0 0 0 0 0 0 0 0 0 0 0 0 0 0 0 0 0 0 0 0 0 0 0 0 0
0 0 0 0 0 0 0 0 0 0 0 0 0 0 0 0 0 0 0 0 0 0 0 0 0 0 0 0 0 0 0 0 0 0 0 0 0 0 0 0 0 0 0 0
0 0 0 0 0 0 0 0 0 0 0 0 0 0 0 0 0 0 0 0 0 0 0 0 0 0 0 0 0 0 0 0 0 0 0 0 0 0 0 0 0 0 0 0
0 0 0 0 0 0 0 0 0 0 0 0 0 0 0 0 0 0 0 0 0 0 0 0 0 0 0 0 0 0 0 0 0 0 0 0 0 0 0 0 0 0 0 0
0 0 0 0 0 0 0 0 0 0 0 0 0 0 0 0 0 0 0 0 0 0 0 0 0 0 0 0 0 0 0 0 0 0 0 0 0 0 0 0 0 0 0 0
0 0 0 0 0 0 0 0 0 0 0 0 0 0 0 0 0 0 0 0 0 0 0 0 0 0 0 0 0 0 0 0 0 0 0 0 0 0 0 0 0 0 0 0
0 0 0 0 0 0 0 0 0 0 0 0 0 0 0 0 0 0 0 0 0 0 0 0 0 0 0 0 0 0 0 0 0 0 0 0 0 0 0 0 0 0 0 0
0 0 0 0 0 0 0 0 0 0 0 0 0 0 0 0 0 0 0 0 0 0 0 0 0 0 0 0 0 0 0 0 0 0 0 0 0 0 0 0 0 0 0 0
0 0 0 0 0 0 0 0 0 0 0 0 0 0 0 0 0 0 0 0 0 0 0 0 0 0 0 0 0 0 0 0 0 0 0 0 0 0 0 0 0 0 0 0
0 0 0 0 0 0 0 0 0 0 0 0 0 0 0 0 0 0 0 0 0 0 0 0 0 0 0 0 0 0 0 0 0 0 0 0 0 0 0 0 0 0 0 0
0 0 0 0 0 0 0 0 0 0 0 0 0 0 0 0 0 0 0 0 0 0 0 0 0 0 0 0 0 0 0 0 0 0 0 0 0 0 0 0 0 0 0 0
0 0 0 0 0 0 0 0 0 0 0 0 0 0 0 0 0 0 0 0 0 0 0 0 0 0 0 0 0 0 0 0 0 0 0 0 0 0 0 0 0 0 0 0
0 0 0 0 0 0 0 0 0 0 0 0 0 0 0 0 0 0 0 0 0 0 0 0 0 0 0 0 0 0 0 0 0 0 0 0 0 0 0 0 0 0 0 0
0 0 0 0 0 0 0 0 0 0 0 0 0 0 0 0 0 0 0 0 0 0 0 0 0 0 0 0 0 0 0 0 0 0 0 0 0 0 0 0 0 0 0 0
0 0 0 0 0 0 0 0 0 0 0 0 0 0 0 0 0 0 0 0 0 0 0 0 0 0 0 0 0 0 0 0 0 0 0 0 0 0 0 0 0 0 0 0
0 0 0 0 0 0 0 0 0 0 0 0 0 0 0 0 0 0 0 0 0 0 0 0 0 0 0 0 0 0 0 0 0 0 0 0 0 0 0 0 0 0 0 0
0 0 0 0 0 0 0 0 0 0 0 0 0 0 0 0 0 0 0 0 0 0 0 0 0 0 0 0 0 0 0 0 0 0 0 0 0 0 0 0 0 0 0 0
0 0 0 0 0 0 0 0 0 0 0 0 0 0 0 0 0 0 0 0 0 0 0 0 0 0 0 0 0 0 0 0 0 0 0 0 0 0 0 0 0 0 0 0
0 0 0 0 0 0 0 0 0 0 0 0 0 0 0 0 0 0 0 0 0 0 0 0 0 0 0 0 0 0 0 0 0 0 0 0 0 0 0 0 0 0 0 0
0 0 0 0 0 0 0 0 0 0 0 0 0 0 0 0 0 0 0 0 0 0 0 0 0 0 0 0 0 0 0 0 0 0 0 0 0 0 0 0 0 0 0 0
0 0 0 0 0 0 0 0 0 0 0 0 0 0 0 0 0 0 0 0 0 0 0 0 0 0 0 0 0 0 0 0 0 0 0 0 0 0 0 0 0 0 0 0
0 0 0 0 0 0 0 0 0 0 0 0 0 0 0 0 0 0 0 0 0 0 0 0 0 0 0 0 0 0 0 0 0 0 0 0 0 0 0 0 0 0 0 0
0 0 0 0 0 0 0 0 0 0 0 0 0 0 0 0 0 0 0 0 0 0 0 0 0 0 0 0 0 0 0 0 0 0 0 0 0 0 0 0 0 0 0 0
0 0 0 0 0 0 0 0 0 0 0 0 0 0 0 0 0 0 0 0 0 0 0 0 0 0 0 0 0 0 0 0 0 0 0 0 0 0 0 0 0 0 0 0
Height
5666 5671 5674 5678 5681 5683 5685 5687 5688 5690 5691 5692 5692 5692 5692 5690 5689 5688 5687 5685 5684 5683 5681 5679 5679 5679 5679 5680 5682 5684 5686 5689 5691 5695 5699 5704 5708 5712 5717 5721 5725 5729 5733 5737
5664 5668 5671 5674 5676 5678 5680 5682 5683 5684 5685 5686 5686 5685 5685 5683 5682 5680 5679 5677 5675 5673 5671 5670 5668 5667 5667 5668 5669 5671 5673 5676 5678 5682 5686 5690 5694 5699 5703 5708 5712 5717 5721 5725
5662 5666 5668 5671 5673 5674 5676 5678 5679 5680 5680 5680 5680 5680 5679 5677 5675 5673 5672 5670 5668 5666 5663 5661 5659 5658 5657 5657 5657 5658 5660 5663 5666 5670 5674 5678 5682 5687 5691 5696 5700 5705 5709 5714
5660 5663 5666 5668 5670 5671 5673 5674 5675 5675 5676 5676 5676 5675 5674 5672 5670 5668 5666 5664 5661 5659 5656 5654 5652 5650 5649 5648 5648 5648 5650 5652 5656 5659 5663 5667 5672 5676 5680 5684 5689 5693 5698 5703
5660 5662 5664 5666 5668 5669 5670 5671 5672 5672 5672 5672 5672 5671 5671 5668 5666 5664 5662 5659 5657 5654 5651 5649 5646 5644 5642 5641 5641 5641 5643 5645 5648 5651 5655 5659 5663 5667 5670 5674 5679 5683 5688 5692
5660 5661 5663 5665 5666 5667 5668 5669 5669 5669 5669 5670 5669 5668 5668 5665 5663 5660 5658 5656 5653 5650 5647 5645 5642 5640 5638 5637 5637 5637 5638 5640 5642 5645 5648 5652 5656 5659 5662 5666 5670 5674 5678 5682
5660 5662 5663 5664 5665 5666 5667 5668 5668 5668 5668 5668 5667 5666 5665 5662 5660 5658 5655 5653 5650 5647 5645 5642 5640 5638 5637 5636 5635 5636 5636 5637 5639 5641 5644 5647 5650 5653 5656 5659 5662 5665 5669 5672
5661 5663 5663 5664 5665 5665 5665 5667 5668 5667 5666 5666 5665 5664 5663 5660 5658 5656 5653 5651 5648 5646 5644 5642 5639 5638 5636 5636 5635 5635 5635 5637 5638 5640 5642 5644 5646 5649 5651 5653 5656 5659 5661 5664
5662 5663 5664 5664 5664 5665 5665 5665 5666 5666 5665 5664 5664 5663 5661 5659 5657 5655 5652 5650 5648 5646 5644 5642 5640 5638 5637 5636 5635 5635 5635 5636 5637 5639 5640 5642 5643 5646 5647 5649 5651 5654 5656 5658
5663 5664 5664 5665 5665 5665 5666 5665 5665 5665 5664 5664 5663 5662 5661 5658 5657 5655 5652 5650 5648 5646 5644 5642 5641 5639 5638 5637 5636 5635 5636 5636 5637 5638 5639 5640 5641 5643 5645 5646 5648 5649 5651 5652
5665 5666 5666 5666 5666 5666 5666 5666 5665 5664 5664 5664 5663 5664 5661 5659 5657 5655 5653 5651 5649 5647 5645 5644 5642 5640 5639 5638 5637 5636 5636 5637 5637 5638 5638 5639 5640 5641 5642 5643 5644 5645 5645 5646
5666 5667 5667 5667 5667 5667 5666 5666 5666 5666 5665 5664 5663 5666 5661 5659 5658 5656 5655 5653 5651 5649 5647 5645 5643 5642 5640 5639 5638 5637 5637 5637 5637 5638 5638 5638 5638 5639 5639 5640 5640 5640 5640 5640
5669 5669 5670 5670 5671 5669 5667 5667 5666 5666 5666 5665 5664 5666 5661 5660 5658 5657 5655 5654 5652 5650 5648 5646 5645 5643 5642 5641 5640 5639 5638 5637 5637 5637 5636 5636 5636 5636 5636 5636 5635 5635 5634 5634
5672 5672 5672 5672 5670 5669 5669 5668 5667 5667 5666 5666 5665 5664 5662 5660 5659 5657 5656 5654 5653 5651 5649 5647 5646 5644 5643 5642 5640 5639 5638 5637 5636 5635 5635 5634 5633 5633 5632 5631 5630 5629 5628 5626
5674 5674 5673 5672 5671 5671 5670 5669 5669 5668 5667 5666 5665 5664 5663 5661 5659 5658 5657 5655 5653 5652 5650 5648 5646 5645 5643 5642 5640 5639 5637 5636 5635 5634 5632 5631 5630 5629 5627 5625 5624 5622 5620 5618
5676 5676 5675 5674 5673 5672 5671 5670 5669 5668 5667 5666 5665 5664 5663 5661 5660 5658 5657 5655 5654 5652 5650 5648 5646 5644 5642 5641 5639 5637 5635 5634 5632 5631 5629 5627 5625 5623 5621 5618 5616 5614 5611 5609
5678 5677 5676 5675 5674 5673 5672 5671 5670 5669 5668 5666 5665 5665 5662 5661 5659 5658 5656 5654 5653 5651 5649 5647 5645 5643 5641 5639 5637 5635 5633 5631 5629 5627 5624 5622 5619 5616 5614 5611 5608 5605 5602 5599
5678 5677 5676 5675 5675 5674 5674 5671 5670 5669 5667 5666 5664 5663 5662 5660 5658 5657 5655 5653 5651 5649 5647 5645 5643 5641 5638 5636 5634 5631 5629 5627 5624 5621 5619 5616 5612 5609 5605 5602 5598 5595 5591 5587
5678 5677 5676 5675 5674 5673 5672 5670 5669 5668 5667 5665 5663 5662 5660 5658 5657 5655 5653 5651 5649 5647 5645 5642 5640 5638 5635 5633 5630 5627 5625 5622 5619 5615 5612 5608 5604 5600 5596 5592 5588 5583 5579 5574
5677 5676 5675 5673 5672 5671 5672 5669 5667 5667 5665 5663 5661 5660 5658 5656 5654 5653 5650 5648 5646 5643 5641 5639 5636 5634 5631 5628 5625 5622 5619 5615 5612 5608 5604 5600 5595 5590 5586 5581 5576 5571 5566 5560
5675 5674 5673 5671 5669 5669 5668 5666 5665 5665 5664 5661 5658 5657 5655 5653 5651 5649 5646 5644 5642 5639 5637 5634 5631 5628 5626 5622 5619 5616 5612 5608 5604 5600 5595 5590 5585 5580 5575 5569 5564 5558 5552 5546
5672 5671 5669 5668 5666 5668 5664 5663 5662 5661 5659 5657 5655 5653 5651 5649 5647 5644 5642 5639 5637 5634 5632 5629 5626 5622 5619 5616 5612 5608 5604 5600 5595 5590 5585 5579 5574 5568 5562 5556 5550 5543 5536 5529
5668 5667 5665 5665 5665 5662 5660 5658 5657 5656 5654 5652 5651 5649 5646 5644 5642 5639 5637 5634 5631 5628 5625 5622 5619 5615 5612 5608 5604 5600 5595 5590 5585 5580 5574 5568 5561 5555 5549 5542 5535 5528 5521 5513
5664 5662 5660 5659 5659 5657 5655 5653 5652 5650 5649 5647 5645 5643 5641 5639 5636 5634 5631 5628 5625 5622 5619 5615 5612 5608 5604 5600 5595 5591 5586 5580 5574 5568 5562 5555 5549 5542 5535 5528 5520 5512 5504 5496
5658 5655 5654 5653 5653 5651 5649 5647 5646 5645 5643 5641 5639 5637 5635 5632 5630 5627 5624 5621 5618 5614 5611 5607 5604 5599 5595 5591 5586 5581 5575 5569 5563 5557 5550 5543 5536 5529 5521 5513 5504 5496 5487 5478
5651 5649 5647 5647 5646 5644 5643 5641 5640 5638 5636 5634 5632 5630 5628 5625 5623 5620 5617 5613 5610 5607 5603 5599 5595 5591 5586 5581 5576 5570 5564 5558 5552 5545 5538 5530 5523 5515 5507 5499 5490 5479 5470 5460
Wind_Speed
21 21 21 21 22 24 25 26 27 29 29 29 30 31 32 33 33 34 36 37 38 39 40 42 43 45 47 49 50 51 51 53 54 56 57 57 58 57 57 58 58 57 56 56
18 19 18 18 19 20 21 22 23 24 25 26 27 28 28 28 30 30 31 31 33 35 36 36 37 39 40 43 45 47 49 50 51 52 54 55 56 56 55 56 57 57 56 55
16 16 17 16 17 17 17 18 20 20 21 22 22 23 24 25 26 27 27 27 27 28 28 29 31 32 34 35 38 40 43 45 47 48 49 51 52 53 54 55 55 55 55 55
13 13 13 14 14 13 14 15 16 17 17 17 18 19 20 21 21 22 21 22 21 21 23 24 24 25 27 28 30 32 35 37 39 41 43 45 46 48 50 51 52 52 52 53
9 9 10 10 11 11 11 11 12 13 13 14 15 16 15 16 17 17 18 18 18 18 18 19 19 19 19 21 22 24 26 28 31 34 36 38 40 41 43 46 48 49 50 51
7 8 8 8 8 9 8 9 9 10 10 10 11 11 11 12 13 13 13 13 13 13 12 13 12 12 12 12 13 15 17 18 21 25 28 30 32 34 37 39 42 45 46 48
6 5 5 5 6 6 6 6 6 6 7 7 7 7 8 9 9 9 10 10 10 9 8 8 8 7 6 5 6 8 10 12 14 16 20 24 27 30 32 34 36 38 40 42
4 3 4 4 4 4 4 4 4 4 5 5 5 5 6 7 7 8 7 6 6 6 6 7 6 4 4 2 3 4 6 8 9 12 15 19 22 24 26 28 30 33 35 37
5 4 3 3 2 2 2 2 2 2 3 2 3 4 5 5 6 5 4 4 4 5 5 5 4 3 1 1 2 2 4 6 7 9 12 14 17 20 22 23 26 29 30 32
6 6 6 5 5 4 3 2 1 1 1 1 2 3 3 5 6 5 6 6 6 6 6 6 6 5 3 1 1 1 4 5 7 8 9 11 13 16 19 21 22 25 27 30
7 7 6 6 5 4 3 2 3 4 4 4 4 5 5 5 6 6 7 7 7 7 6 6 6 6 5 4 2 1 0 1 2 4 6 8 10 13 16 19 21 23 25 28
8 8 7 7 6 5 5 5 5 5 5 5 4 4 5 6 6 6 7 6 6 7 6 6 6 6 6 5 4 4 3 3 3 5 6 8 9 11 13 16 18 20 23 26
10 9 8 7 6 6 5 5 5 5 5 4 4 4 5 6 6 6 6 6 6 6 6 6 6 6 6 5 5 5 5 6 7 8 9 10 11 13 15 17 19 21 23 26
10 9 7 7 6 6 6 5 5 4 4 4 4 4 5 6 6 6 6 6 6 6 7 6 5 6 6 6 6 7 7 8 9 10 12 13 14 16 18 20 22 24 26 29
9 8 7 6 6 6 6 5 5 5 5 5 5 5 5 5 6 6 6 6 7 8 8 9 9 9 9 8 9 9 10 11 12 13 14 16 17 19 21 24 26 27 29 31
8 8 7 5 5 4 4 4 4 4 5 5 5 5 6 5 6 6 7 7 8 9 10 11 11 11 11 11 12 12 12 13 14 16 17 19 21 23 25 26 27 29 30 32
7 6 6 5 4 4 4 4 4 5 5 6 6 6 6 6 7 7 8 9 10 11 12 12 12 12 13 14 15 15 16 17 18 19 21 23 24 26 28 29 31 32 34 36
6 6 5 5 4 4 4 4 4 5 6 6 7 7 8 9 9 9 10 11 12 13 14 14 14 15 16 17 18 18 19 20 22 23 25 26 28 30 31 32 34 36 38 40
6 6 6 5 4 4 5 5 6 6 6 7 8 9 10 11 11 12 12 13 14 15 15 16 17 18 18 19 20 21 22 24 25 27 29 31 32 34 35 36 38 40 42 44
7 7 7 7 7 7 8 8 8 8 8 9 10 11 12 13 14 14 14 15 15 16 17 18 19 20 21 22 24 25 26 28 29 31 33 35 36 37 38 40 42 44 46 48
10 9 10 10 11 10 10 10 10 10 11 12 13 14 15 15 16 16 16 16 17 18 19 21 22 24 25 26 27 29 30 31 33 35 37 38 39 41 42 44 46 47 49 51
12 12 12 13 12 12 11 11 12 12 13 14 15 16 17 17 18 18 18 19 21 22 23 24 26 27 28 29 31 32 33 35 37 39 41 42 43 45 46 48 49 51 53 54
14 14 14 14 14 14 14 14 15 15 16 17 17 18 19 20 20 21 22 23 24 25 26 28 29 30 31 32 34 35 37 38 40 42 44 45 46 48 49 51 52 53 55 57
15 16 16 16 16 16 17 17 18 18 18 19 20 21 22 22 22 23 24 25 26 28 29 30 31 32 33 35 36 38 39 41 43 45 46 47 48 50 51 52 54 55 57 59
18 18 18 18 18 19 19 19 19 20 21 21 22 23 23 24 25 26 26 28 29 29 31 32 33 34 35 37 39 40 42 44 45 47 48 49 51 52 53 55 56 58 60 61
21 21 21 20 20 21 21 22 21 22 23 23 24 24 25 26 26 27 28 29 30 31 32 33 35 37 38 39 41 42 44 45 47 48 50 51 52 53 55 56 58 59 61 62
Wind_Direction
221 226 231 236 240 244 247 251 254 257 258 260 262 263 265 268 268 269 269 268 267 267 267 266 265 263 261 259 258 257 256 254 252 250 249 248 247 246 245 244 244 244 244 243
219 223 228 233 238 243 246 250 253 256 258 261 262 264 266 269 271 271 271 271 271 269 268 268 267 265 264 262 259 257 255 253 251 250 248 247 245 244 244 243 243 243 242 242
216 221 224 230 236 243 246 249 252 256 259 262 264 266 269 271 274 274 274 274 273 271 270 270 268 267 266 263 260 256 252 251 250 248 247 246 245 244 244 243 242 241 241 242
205 210 219 226 233 238 243 246 250 254 258 262 264 268 272 275 275 276 276 277 278 277 276 275 273 270 267 264 260 254 251 249 247 246 246 245 245 244 244 242 241 240 241 242
197 207 216 223 229 232 238 243 247 252 257 262 266 271 275 277 279 281 280 279 284 282 280 279 275 272 269 265 259 253 250 247 245 243 243 242 242 242 242 241 241 241 243 244
186 195 205 216 223 227 232 241 250 254 257 262 268 275 276 278 284 287 288 287 293 292 287 286 280 276 274 266 256 251 248 246 244 240 238 238 240 241 242 242 241 242 244 245
162 181 195 207 209 216 230 243 251 254 254 266 275 281 285 288 290 298 303 300 304 308 304 302 296 290 291 277 260 248 242 241 238 234 233 235 239 241 244 245 245 245 246 247
135 153 166 179 193 212 224 228 237 253 266 274 280 295 302 300 306 311 317 315 322 327 325 322 320 308 299 293 293 265 250 241 235 231 230 234 239 241 244 244 244 244 245 246
121 123 132 147 159 154 154 180 224 249 255 271 301 312 319 331 340 345 356 358 359 359 8 11 12 14 22 299 305 278 255 244 242 241 239 242 242 244 244 244 245 244 244 245
112 110 109 113 115 110 116 121 134 158 116 39 19 17 29 32 35 41 39 42 34 30 29 29 34 40 52 68 56 242 238 246 248 243 246 246 249 250 249 249 250 249 249 250
99 98 99 99 100 94 94 90 92 94 96 82 75 62 54 48 47 46 45 45 44 40 36 31 28 28 30 40 55 31 340 255 254 253 254 256 256 254 254 254 254 255 256 256
94 89 87 88 92 88 83 88 93 94 95 89 77 66 53 43 42 40 38 39 42 37 32 28 22 21 19 20 12 357 347 322 306 291 278 273 272 269 267 266 265 263 261 263
87 84 82 82 82 80 78 82 88 90 87 77 67 55 34 29 30 30 30 29 27 28 28 27 29 26 16 1 347 334 334 320 311 306 299 292 288 283 281 279 277 274 272 271
82 78 73 73 76 78 73 72 75 75 64 47 37 30 18 18 17 18 19 15 15 19 19 16 8 5 3 351 341 331 326 317 308 302 302 300 295 292 289 288 285 282 280 278
72 65 60 66 73 69 64 64 63 57 38 27 25 17 10 9 7 6 9 10 6 3 360 358 352 346 345 340 333 326 317 313 310 306 303 300 298 296 293 290 288 285 282 280
57 52 51 53 56 53 47 42 40 33 21 17 7 2 359 356 352 351 352 350 349 348 346 343 339 337 334 332 330 327 323 317 312 309 306 303 299 298 296 295 292 289 287 286
36 36 39 37 33 31 22 16 11 3 354 345 342 344 346 348 342 338 338 338 337 336 335 332 330 329 326 325 322 320 319 316 313 310 308 306 304 301 299 296 294 292 291 290
16 17 15 12 5 2 2 356 348 344 341 339 339 338 338 339 338 334 330 328 327 328 327 327 326 325 323 321 319 318 316 314 313 312 310 309 307 305 303 300 297 296 295 294
351 351 347 342 338 339 328 325 322 325 328 328 327 326 326 325 323 319 316 315 317 318 319 319 318 317 316 315 314 313 312 311 310 310 309 308 307 305 303 301 300 298 297 296
326 323 322 319 316 317 312 310 309 311 314 314 314 316 316 315 312 311 310 310 311 311 312 312 313 313 312 312 311 310 310 309 309 309 309 308 307 305 303 302 301 300 298 297
308 304 305 306 306 306 304 303 300 300 302 304 305 305 307 308 308 306 306 305 306 307 308 309 309 309 309 309 309 309 309 308 309 309 309 308 306 304 303 302 301 300 299 299
301 296 294 295 297 297 298 300 298 296 297 300 302 301 303 304 304 303 302 302 302 304 305 306 307 307 307 307 308 308 308 308 308 308 308 307 306 305 304 303 303 302 301 301
297 295 293 291 291 293 294 295 294 293 295 297 300 300 300 301 301 301 301 301 302 303 304 305 306 306 306 306 307 307 308 308 308 308 307 307 306 306 305 305 305 304 304 304
293 291 289 288 289 291 292 292 292 293 295 297 298 300 299 299 299 300 300 301 301 302 303 304 305 306 306 306 307 307 308 309 309 308 308 308 307 307 307 307 307 307 306 306
287 287 286 287 288 287 287 289 291 293 293 295 296 299 300 299 299 300 300 301 302 303 305 306 306 306 307 307 307 308 309 309 309 309 309 309 308 308 308 309 309 308 308 308
284 284 284 285 284 285 285 287 289 291 292 293 295 297 298 299 300 301 301 302 302 304 305 306 307 307 307 307 308 309 309 310 310 310 310 309 309 309 310 310 311 310 310 310